Location: Chilton Park
(37.7711°N, 100.0276°W)
Time: 15:09:23
(UTC+00:00)

SJ 16-02 - Pass Details

Date: 08 December 2021
Orbit: 605 x 616 km, 75.0° (Epoch: 20 January)

Event Time Altitude Azimuth Distance (km) Brightness Sun altitude
Rises 11:59:48 0° 201° (SSW) 2,849 4.7 -19.8°
Reaches altitude 10° 12:02:02 10° 204° (SSW) 1,948 3.8 -19.4°
Maximum altitude 12:06:22 70° 288° (WNW) 647 1.2 -18.6°
Drops below altitude 10° 12:10:43 10° 12° (NNE) 1,958 3.9 -17.8°
Sets 12:12:58 0° 15° (NNE) 2,866 4.8 -17.3°
